Waarnemingen

Advertentie
Mijn weer
Vinga, Zweden (2516): temperatuur & dauwpunt: 15.05.2019 00:00:00 - 21.05.2019 00:00:00 (CEST)Vinga, Zweden (2516): windsnelheid & windstoten: 15.05.2019 00:00:00 - 21.05.2019 00:00:00 (CEST)Vinga, Zweden (2516): windrichting: 15.05.2019 00:00:00 - 21.05.2019 00:00:00 (CEST)Vinga, Zweden (2516): luchtdruk: 15.05.2019 00:00:00 - 21.05.2019 00:00:00 (CEST)Vinga, Zweden (2516): zicht: 15.05.2019 00:00:00 - 21.05.2019 00:00:00 (CEST)Vinga, Zweden (2516): neerslag: 15.05.2019 00:00:00 - 21.05.2019 00:00:00 (CEST)
Datum & Tijd tt [°C] td [°C] ff [km/u] ff [kn] fx [km/u] fx [kn] dd ppp [hPa] vv [km] rr [mm]
21.05.2019 00:00:00 15,2 14,4 15 8 20 11 NNO 1007,8 12 0,0
20.05.2019 23:00:00 14,0 13,2 17 9 23 12 N 1007,8 10 0,0
20.05.2019 22:00:00 13,8 13,0 13 7 21 11 N 1007,9 11 0,0
20.05.2019 21:00:00 13,8 13,0 11 6 16 8 NNW 1008,0 9 0,0
20.05.2019 20:00:00 14,3 13,2 10 5 16 9 NNW 1008,1 11 0,0
20.05.2019 19:00:00 15,1 13,8 10 5 14 8 NNW 1007,7 14 0,0
20.05.2019 18:00:00 16,4 14,6 7 4 12 7 NW 1007,8 16 0,0
20.05.2019 17:00:00 15,9 14,4 6 3 8 5 WNW 1008,1 14 0,0
20.05.2019 16:00:00 15,6 14,5 4 2 9 5 W 1008,4 13 0,0
20.05.2019 15:00:00 15,0 14,0 7 4 21 11 ZW 1008,2 11 0,0
20.05.2019 14:00:00 15,8 13,8 6 3 13 7 Z 1008,1 20 0,0
20.05.2019 13:00:00 16,9 14,9 6 3 11 6 OZO 1007,6 17 0,0
20.05.2019 12:00:00 16,5 14,9 8 4 13 7 OZO 1007,8 21 0,0
20.05.2019 11:00:00 15,9 14,8 6 3 14 8 O 1007,5 16 0,0
20.05.2019 10:00:00 14,9 14,4 10 6 15 8 ONO 1007,5 15 0,0
20.05.2019 09:00:00 14,1 13,8 10 6 18 10 ONO 1007,6 - 0,0
20.05.2019 08:00:00 14,2 13,9 15 8 20 11 NNO 1007,5 10 0,1
20.05.2019 07:00:00 14,0 13,7 17 9 23 13 NNO 1007,7 12 0,1
20.05.2019 06:00:00 13,8 13,3 16 9 35 19 N 1008,0 17 3,7
20.05.2019 05:00:00 13,7 13,2 24 13 33 18 NNO 1008,3 3,7 3,1
20.05.2019 04:00:00 13,7 12,8 14 8 27 14 NO 1009,2 8 0,9
20.05.2019 03:00:00 14,4 12,4 20 11 27 15 NO 1009,4 38 0,0
20.05.2019 02:00:00 14,5 12,4 21 11 29 16 NO 1009,6 35 0,0
20.05.2019 01:00:00 14,7 12,4 21 11 29 15 NO 1010,0 42 0,0
20.05.2019 00:00:00 15,0 12,3 23 12 30 16 NO 1010,2 39 0,0
19.05.2019 23:00:00 15,8 12,5 19 10 24 13 NO 1010,3 39 0,0
19.05.2019 22:00:00 17,2 13,1 7 4 27 15 ONO 1010,3 32 0,0
19.05.2019 21:00:00 17,5 12,8 22 12 29 16 NO 1009,8 40 0,0
19.05.2019 20:00:00 16,2 13,1 20 11 34 18 N 1009,6 21 0,0
19.05.2019 19:00:00 18,0 12,9 22 12 40 22 N 1009,9 16 0,0
19.05.2019 18:00:00 14,4 12,1 29 16 37 20 NNW 1010,2 20 0,0
19.05.2019 17:00:00 14,4 12,1 22 12 28 15 NNW 1010,9 18 0,0
19.05.2019 16:00:00 14,4 12,1 18 10 26 14 NNW 1011,2 17 0,0
19.05.2019 15:00:00 14,0 12,0 16 9 22 12 NW 1011,6 2,2 0,0
19.05.2019 14:00:00 14,3 12,2 12 7 20 11 NW 1011,9 20 0,0
19.05.2019 13:00:00 13,9 11,9 12 6 16 9 WNW 1012,0 3,0 0,0
19.05.2019 12:00:00 13,3 12,0 12 7 17 9 WZW 1012,1 1,6 0,0
19.05.2019 11:00:00 12,6 11,3 9 5 16 9 WZW 1012,2 0,8 0,0
19.05.2019 10:00:00 13,8 11,8 9 5 14 8 Z 1012,1 10 0,0
19.05.2019 09:00:00 14,3 12,3 8 5 12 7 ZO 1011,8 13 0,0
19.05.2019 08:00:00 13,4 12,0 9 5 14 8 OZO 1011,4 13 0,0
19.05.2019 07:00:00 12,6 11,7 10 6 16 8 OZO 1011,4 10 0,0
19.05.2019 06:00:00 12,0 11,2 8 4 11 6 O 1011,4 9 0,0
19.05.2019 05:00:00 12,4 11,5 9 5 13 7 OZO 1011,3 12 0,0
19.05.2019 04:00:00 12,3 10,9 9 5 11 6 O 1011,3 16 0,0
19.05.2019 03:00:00 11,9 10,5 3 2 6 4 O 1011,4 31 0,0
19.05.2019 02:00:00 14,1 11,3 3 2 4 2 ZO 1011,5 44 0,0
19.05.2019 01:00:00 12,9 11,0 3 2 5 3 ZW 1011,6 45 0,0
19.05.2019 00:00:00 12,3 10,7 0 0 15 8 N 1012,0 36 0,0
18.05.2019 23:00:00 12,2 10,6 13 7 17 9 NNW 1012,1 43 0,0
18.05.2019 22:00:00 12,3 10,7 15 8 22 12 NNW 1012,1 42 0,0
18.05.2019 21:00:00 12,6 10,8 15 8 22 12 NNW 1012,3 36 0,0
18.05.2019 20:00:00 13,0 11,2 14 7 19 10 NNW 1012,4 37 0,0
18.05.2019 19:00:00 13,2 11,3 13 7 21 11 NNW 1012,2 31 0,0
18.05.2019 18:00:00 13,8 11,7 13 7 19 10 NNW 1012,5 33 0,0
18.05.2019 17:00:00 14,4 11,9 11 6 19 10 NNW 1012,9 22 0,0
18.05.2019 16:00:00 14,7 12,0 11 6 16 9 NNW 1013,2 26 0,0
18.05.2019 15:00:00 14,2 11,7 8 4 11 6 NW 1013,7 16 0,0
18.05.2019 14:00:00 13,9 11,9 7 4 10 5 NW 1013,8 18 0,0
18.05.2019 13:00:00 13,7 12,3 4 2 8 4 NNO 1013,8 16 0,0
18.05.2019 12:00:00 12,8 11,9 2 1 6 3 ONO 1014,1 16 0,0
18.05.2019 11:00:00 12,2 11,6 2 1 8 5 O 1014,0 7 0,0
18.05.2019 10:00:00 11,8 11,0 8 5 13 7 O 1013,8 7 0,0
18.05.2019 09:00:00 11,9 11,1 10 5 17 9 OZO 1013,7 16 0,0
18.05.2019 08:00:00 11,3 10,7 14 8 21 11 OZO 1013,5 14 0,0
18.05.2019 07:00:00 11,1 10,3 17 9 22 12 OZO 1013,3 17 0,0
18.05.2019 06:00:00 10,7 10,1 10 6 14 8 O 1013,3 28 0,0
18.05.2019 05:00:00 10,2 9,6 8 5 12 7 ONO 1013,3 15 0,1
18.05.2019 04:00:00 10,2 9,6 8 4 16 9 O 1013,5 9 3,7
18.05.2019 03:00:00 10,2 9,1 10 6 15 8 O 1013,6 6 2,0
18.05.2019 02:00:00 10,5 8,4 9 5 20 11 ONO 1013,5 27 0,0
18.05.2019 01:00:00 10,4 8,7 13 7 31 17 O 1013,8 50 0,2
18.05.2019 00:00:00 10,2 8,3 19 10 41 22 O 1014,1 8 0,3
17.05.2019 23:00:00 10,4 7,6 30 16 46 25 ONO 1014,2 50 0,5
17.05.2019 22:00:00 10,1 7,9 36 19 53 29 ONO 1014,8 13 2,3
17.05.2019 21:00:00 10,6 8,0 37 20 47 25 ONO 1015,4 11 1,9
17.05.2019 20:00:00 11,0 7,9 27 15 45 24 ONO 1015,9 14 1,3
17.05.2019 19:00:00 11,6 8,5 30 16 44 24 ONO 1016,1 11 1,6
17.05.2019 18:00:00 12,1 8,8 30 16 44 24 ONO 1016,7 13 1,8
17.05.2019 17:00:00 12,3 8,8 27 15 40 22 ONO 1017,1 15 0,8
17.05.2019 16:00:00 13,3 7,9 22 12 44 24 ONO 1017,5 23 0,3
17.05.2019 15:00:00 14,8 6,1 31 17 49 26 O 1017,4 16 0,0
17.05.2019 14:00:00 16,8 3,5 30 16 44 24 O 1017,4 39 0,0
17.05.2019 13:00:00 16,8 5,1 25 14 41 22 ONO 1017,5 34 0,0
17.05.2019 12:00:00 15,5 4,5 26 14 42 23 ONO 1018,0 36 0,0
17.05.2019 11:00:00 14,7 4,1 28 15 39 21 ONO 1018,6 47 0,0
17.05.2019 10:00:00 12,9 4,1 26 14 41 22 ONO 1019,5 47 0,0
17.05.2019 09:00:00 11,8 4,5 27 15 40 21 ONO 1019,7 28 0,0
17.05.2019 08:00:00 11,9 2,4 30 16 44 24 ONO 1020,2 47 0,0
17.05.2019 07:00:00 10,9 2,0 34 19 46 25 ONO 1020,4 43 0,0
17.05.2019 06:00:00 10,7 1,5 32 17 46 25 ONO 1020,8 50 0,0
17.05.2019 05:00:00 10,2 1,6 31 17 45 24 ONO 1021,0 50 0,0
17.05.2019 04:00:00 10,6 0,6 26 14 37 20 ONO 1021,6 50 0,0
17.05.2019 03:00:00 11,1 1,6 24 13 34 19 ONO 1022,1 50 0,0
17.05.2019 02:00:00 11,9 1,5 17 9 30 16 O 1022,6 50 0,0
17.05.2019 01:00:00 12,9 0,3 17 9 38 20 O 1023,1 50 0,0
17.05.2019 00:00:00 13,9 0,9 22 12 35 19 O 1023,2 50 0,0
16.05.2019 23:00:00 14,0 3,7 23 12 32 18 ONO 1023,2 50 0,0
16.05.2019 22:00:00 14,6 4,3 24 13 33 18 ONO 1023,0 50 0,0
16.05.2019 21:00:00 15,4 5,0 24 13 32 18 ONO 1022,7 50 0,0
16.05.2019 20:00:00 16,4 4,4 26 14 35 19 ONO 1022,5 43 0,0
16.05.2019 19:00:00 17,5 3,7 25 14 37 20 ONO 1022,6 50 0,0
16.05.2019 18:00:00 17,3 3,9 28 15 39 21 NO 1022,9 41 0,0
16.05.2019 17:00:00 17,8 4,4 24 13 37 20 ONO 1023,4 48 0,0
16.05.2019 16:00:00 18,2 4,0 24 13 38 21 ONO 1024,1 37 0,0
16.05.2019 15:00:00 17,8 4,4 25 14 37 20 NO 1024,7 38 0,0
16.05.2019 14:00:00 18,0 4,5 23 13 35 19 ONO 1025,3 39 0,0
16.05.2019 13:00:00 16,6 4,0 20 11 35 19 ONO 1025,9 38 0,0
16.05.2019 12:00:00 16,6 4,0 25 14 37 20 ONO 1026,4 35 0,0
16.05.2019 11:00:00 16,1 3,8 26 14 39 21 ONO 1027,0 43 0,0
16.05.2019 10:00:00 15,4 3,5 26 14 36 19 ONO 1027,5 41 0,0
16.05.2019 09:00:00 13,8 4,4 18 10 31 17 NO 1028,0 45 0,0
16.05.2019 08:00:00 12,1 3,6 21 11 29 16 NO 1028,3 47 0,0
16.05.2019 07:00:00 11,0 3,8 19 11 29 15 NO 1028,1 50 0,0
16.05.2019 06:00:00 10,3 3,8 19 10 26 14 NO 1028,0 50 0,0
16.05.2019 05:00:00 9,4 4,2 18 10 22 12 ONO 1028,4 50 0,0
16.05.2019 04:00:00 9,6 3,6 16 8 20 11 NO 1028,7 50 0,0
16.05.2019 03:00:00 10,2 5,2 10 6 18 10 O 1028,8 50 0,0
16.05.2019 02:00:00 10,7 5,9 11 6 23 13 ONO 1029,0 50 0,0
16.05.2019 01:00:00 10,6 5,4 18 10 25 14 ONO 1029,1 50 0,0
16.05.2019 00:00:00 11,2 4,9 16 9 21 12 NO 1029,1 50 0,0
15.05.2019 23:00:00 12,1 5,7 16 9 24 13 NO 1029,1 50 0,0
15.05.2019 22:00:00 11,6 7,9 20 11 29 16 N 1029,0 46 0,0
15.05.2019 21:00:00 11,2 7,1 22 12 36 19 N 1028,8 40 0,0
15.05.2019 20:00:00 11,0 6,7 26 14 40 21 N 1028,7 42 0,0
15.05.2019 19:00:00 11,1 7,2 30 16 44 24 NNW 1028,9 31 0,0
15.05.2019 18:00:00 11,7 8,2 29 16 40 22 NNW 1029,1 30 0,0
15.05.2019 17:00:00 11,5 7,2 29 16 40 22 NNW 1029,4 30 0,0
15.05.2019 16:00:00 12,3 7,4 26 14 35 19 NNW 1029,9 39 0,0
15.05.2019 15:00:00 12,3 5,7 22 12 31 17 NNW 1030,4 46 0,0
15.05.2019 14:00:00 12,3 4,5 23 12 30 16 NNW 1030,7 50 0,0
15.05.2019 13:00:00 13,1 5,5 16 9 21 12 NW 1031,0 40 0,0
15.05.2019 12:00:00 12,7 6,3 13 7 18 10 NW 1031,3 43 0,0
15.05.2019 11:00:00 11,7 6,2 10 6 14 7 NW 1031,6 31 0,0
15.05.2019 10:00:00 11,1 3,9 5 3 11 6 ONO 1031,6 40 0,0
15.05.2019 09:00:00 10,4 5,4 6 4 16 8 O 1031,7 39 0,0
15.05.2019 08:00:00 9,2 6,3 9 5 21 11 O 1031,6 30 0,0
15.05.2019 07:00:00 8,2 6,0 12 6 16 9 ONO 1031,6 30 0,0
15.05.2019 06:00:00 7,9 6,2 8 4 10 5 ONO 1031,4 20 0,0
15.05.2019 05:00:00 8,1 6,2 4 2 9 5 O 1031,2 38 0,0
15.05.2019 04:00:00 8,4 6,0 4 2 5 3 OZO 1031,1 44 0,0
15.05.2019 03:00:00 8,3 5,2 0 0 2 1 N 1031,3 50 0,0
15.05.2019 02:00:00 8,4 5,2 0 0 5 3 N 1031,5 47 0,0
15.05.2019 01:00:00 8,5 5,6 4 2 11 6 NO 1031,7 50 0,0
15.05.2019 00:00:00 8,9 5,6 8 4 11 6 N 1031,9 48 0,0

tt = temperatuur
td = dauwpunt
ff = windsnelheid
fx = windstoten
dd = windrichting
ppp = luchtdruk
vv = zicht
rr = neerslag

Weerstations in de omgeving